Погода в Анадыре

Погода в Анадыре : погода сейчас, прогноз погоды и архив. Всё, что Вы хотите узнать о погоде в Анадыре!

Хотите узнать прогноз погоды в Анадыре? Тогда Вам сюда: Погода в Анадыре

Поиск расширенной информации на нашем сайте:

Другие новости

Новости СМИ2

Главная страница сайта

Новости сайта

03.07.2017

Напоминаем, что на нашем специализированном сайте Метеоцентр.Азия вы можете получить высокодетализированные автоматические прогнозы погоды по пунктам России, СНГ и мира в авиационном формате (включающие направление и скорость ветра, видимость, явления погоды, количество и форму облачности, нижнюю и верхнюю границу облачности).


Погода в Анадыре - сегодня

Время (UTC), дата Ветер
(°,м/с) 
Видим.   Явления Облачность Т
(°С)
Тd
(°С)
f(%) Тe
(°С)
Pmin
(гПа)
dP
(гПа)
Po
(мм)
O2
(г/м3)
Тmin Tmax R s Состояние
почвы
00 14.04.18 010 (С) 3{10}  20000 м    3/0 верхняя 
[Ci fib]
-8 -14.8 58 -11  1019.4  -2.3  759  316           
03 14.04.18 020 (С) 9-11{13}  20000 м    4/0 средняя, верхняя 
[Ac lent|Ci fib]
-7.2 -11.1 74 -13  1016.5  -2.8  756  314           
15 14.04.18 050 (СВ) 5{15}  50000 м  {ливн. осадки}  9/9 300 м кучево-дожд. 
[Cb cap]
-10 -11.7 87 -15  1010.5  -2.3  752  316           
18 14.04.18 060 (СВ) 10-13{14}  10 км  слаб. ливневой снег  10/10 300 м кучево-дожд. 
[Cb cap]
-9.5 -10.2 95 -17  1008.1  -2.4  750  314  -10.3    0.5  35  неравномерный
сухой снег
100% 
06 15.04.18 090 (В) 19-24{29}  0300 м  слаб. ливневой снег  10/10 600 м кучево-дожд. 
[Cb cap]
-3 -4 93 -11  1000.6  -1.2  745  304    -2.2     
18 15.04.18 060 (СВ) 16-22{22}  20000 м  позёмок  10/10 600 м 
[Sc]
-3.4 -5.5 85 -11  996.4  -2  742  303  -4    0.6  33  неравномерный
сухой снег
100% 
06 16.04.18 090 (В) 13-18{23}  10 км  слаб. ливневой снег  9/9 600 м кучево-дожд. 
[Cb cap]
+0.4 -1.6 86 -5  983.8  -1.5  732  295    +0.6     
15 16.04.18 120 (ЮВ) 20-25{28}  50000 м    10/10 600 м кучево-дожд. 
[Cb cap]
+0.2 -2.5 82 -7  990.4  1.3  737  297           
18 16.04.18 120 (ЮВ) 21-27{29}  8000 м  метель  9/9 600 м кучево-дожд. 
[Cb cap]
-0.2 -1.7 90 -7  992.1  1.7  738  298  -0.4    0.3  32  мокрый или
старый снег
50-90% 
03 17.04.18 110 (В) 15-17{20}  20000 м    9/6 600 м кучево-дожд., средняя 
[Cb cap|Ac trans]
-0.2 -2.6 84 -6  995.2  -0.2  741  299           
06 17.04.18 110 (В) 11-13{18}  20000 м    9/9 600 м кучево-дожд. 
[Cb cap]
-0.1 -2.5 84 -5  995.8  0.6  741  299    +0.1  0.0     
09 17.04.18 110 (В) 11-14{15}  50000 м    9/9 600 м кучево-дожд. 
[Cb cap]
-0.1 -3.2 80 -5  995.9  0.1  741  299           
18 17.04.18 060 (СВ) 5{17}  14000 м  слаб. ливневой снег  9/9 600 м кучево-дожд. 
[Cb cap]
-1 -3.6 82 -4  998.8  2.2  743  301  -1.9    0.3  32  мокрый или
старый снег
50-90% 
03 18.04.18 050 (СВ) 6{15}  15000 м  слаб. ливневой снег  10/10 600 м кучево-дожд. 
[Cb cap]
+0.2 -1.5 88 -3  1002  1.1  746  300           
06 18.04.18 070 (В) 5{08}  20000 м  {ливн. осадки}  9/6 600 м кучево-дожд., средняя 
[Cb cap|Ac trans]
+0 -1.8 88 -3  1002.5  0.5  746  301    +0.5  0.0     
09 18.04.18 050 (СВ) 4{07}  50000 м  в посл. час ливневой снег  9/9 600 м кучево-дожд. 
[Cb cap]
-0.5 -2.6 86 -3  1003.2  0.6  747  302           
15 18.04.18 040 (СВ) 8-10{11}  50000 м    9/6 600 м средняя 
[Sc|Ac trans]
-2.4 -5.3 80 -7  1003.2  747  304           
18 18.04.18 020 (С) 7-10{11}  20000 м    9/3 600 м средняя 
[Sc|Ac trans]
-4.1 -6.7 82 -9  1003.8  0.5  822  337  -4.6    0.0  32  мокрый или
старый снег
50-90% 
21 18.04.18 020 (С) 6{12}  20000 м    8/3 600 м средняя 
[Sc|Ac trans]
-1.6 -3.3 88 -5  1004.7  748  303           
03 19.04.18 050 (СВ) 10-12{14}  20000 м    5/3 600 м средняя, верхняя 
[Sc|Ac trans|Ci fib]
+0.3 -5.2 67 -4  1004.9  0.2  748  302           
06 19.04.18 060 (СВ) 9-12{14}  20000 м    9/8 600 м средняя, верхняя 
[Sc|Ac trans|Ci fib]
-0.9 -4.8 75 -6  1005.1  0.2  748  303    +0.3  0.0     
09 19.04.18 040 (СВ) 13-17{17}  50000 м    9/9 600 м 
[Sc]
-1.7 -7.4 65 -8  1006  0.9  749  304           
15 19.04.18 040 (СВ) 4{15}  50000 м    9/8 600 м средняя 
[Sc|Ac trans]
-5.1 -8.3 78 -8  1008.4  1.2  750  309           
18 19.04.18 170 (Ю) 2{08}  20000 м    5/0 средняя 
[Ac trans]
-6.8 -9.7 80 -8  1009  0.9  751  311  -7.5      32  мокрый или
старый снег
50-90% 
21 19.04.18 320 (СЗ) 4{05}  20000 м    1/0 средняя 
[Ac trans]
-4.7 -9.1 71 -8  1009.9  0.9  752  309           
Время (UTC), дата Ветер
(°,м/с) 
Видим.   Явления Облачность Т
(°С)
Тd
(°С)
f(%) Тe
(°С)
Pmin
(гПа)
dP
(гПа)
Po
(мм)
O2
(г/м3)
Тmin Tmax R s Состояние
почвы

Для получения пояснительной информации подведите курсор к названию столбца.

ПОГОДА в Анадыре - архив

Всё, что Вы хотите узнать о погоде в Анадыре - удобно и подробно!

Выберите нужную дату (начиная с 1 января 2015* года) и нажмите кнопку "Найти".
Будут отображены архивные сводки погоды по пункту Анадырь, начиная с указанной даты.


Отображать данные в формате CSV (для использования в таблицах Excel)


Внимание! Наш архив погоды предназначен исключительно для личного некоммерческого использования в познавательных целях. Если Вам необходимы официальные справки о состоянии погоды (для производственных, юридических, коммерческих и т.п. целей), обращайтесь в органы Росгидромета.

*Примечание: данная дата относится к архиву по метеостанциям СССР (Россия, СНГ, Балтия).
Архив по метеостанциям Зарубежной Европы и Азии (кроме Китая) хранится 10 дней, по другим регионам земного шара (Китай, Африка, Америка, Австралия, Океания) - 1 день.

Анадырь - район местоположения метеостанции


Название, широта, долгота, высота метеостанции:
Анадырь (город) 64.8°ш. 177.6°д. 61 м над ур. моря [Российская Федерация]

Дополнительная информация

В oтличие oт бoльшинства пoгoдных сайтoв мы публикуем пoдрoбную метеoинфoрмацию в детальнoм прoфессиoнальнoм фoрмате.

Характеристики температуры и влажнoсти вoздуха измеряются на высoте 2 м в тени вдали oт зданий и деревьев.
Скoрoсть ветра измеряется на высoте 10 м (на урoвне рoста челoвека скoрoсть ветра ниже в 1.5-2 раза). Если метеoстанция нахoдится в гoрoде или в лесу, тo скoрoсть ветра занижена на 2-4 м/с пo сравнению с oткрытым местoм. Скoрoсть ветра над акватoриями крупных рек и oзёр, а также на вершинах хoлмoв на 2-5 м/с выше, чем в oбычных услoвиях.
Атмoсфернoе давление в разных тoчках местнoсти мoжет значительнo oтличаться oт давления на метеoстанции, в зависимoсти oт услoвий рельефа (при пoдъёме на 10 м давление пoнижается примернo на 1 мм рт.ст.).